RH
67 67 82 89 89 80 79 73 70 65 72 78 72 77 77 64 79 66 67 68 66 70 70 70 72 76 77 74 75 77 78 76 78 77 69 64 60 59 60 65 64 62 71
50 46 53 80 89 82 82 68 71 71 72 74 60 77 78 76 77 74 72 72 69 72 73 76 78 80 78 77 74 78 79 72 66 71 75 89 74 65 69 69 66 71 81
52 51 43 60 79 84 89 83 80 84 75 72 82 89 89 80 81 75 72 75 77 79 79 82 85 84 82 81 73 74 76 72 80 74 76 90 94 87 67 71 68 73 75
53 49 48 42 49 68 79 74 65 66 66 71 83 88 94 90 80 70 73 73 71 66 69 74 81 91 90 83 80 80 79 90 92 89 84 83 90 93 90 74 79 76 79
58 53 49 41 36 35 39 76 87 61 64 68 67 72 93 84 78 76 73 85 90 88 81 80 86 90 92 88 86 85 84 87 84 85 90 88 82 80 91 93 87 89 90
58 56 46 41 38 35 34 39 73 86 67 63 72 74 70 77 83 90 93 98 99 92 87 83 79 67 53 44 45 52 60 68 74 77 82 92 89 86 91 97 89 88 98
57 55 53 49 41 39 34 35 58 75 78 80 79 69 64 77 86 92 98 99 91 84 78 65 53 49 46 53 55 57 59 62 68 78 87 91 95 95 97 84 92 98 100
52 52 52 47 44 39 38 37 56 75 85 85 86 88 79 79 86 90 94 95 89 80 70 58 58 57 58 57 59 59 62 64 71 79 95 98 91 85 86 98 93 97 100
38 42 55 49 43 41 40 39 55 64 67 75 77 81 84 88 89 87 84 83 84 69 59 60 57 55 56 58 56 57 60 64 72 84 97 95 89 84 90 93 99 99 96
42 47 60 58 54 57 56 51 56 57 59 61 63 66 74 78 77 68 65 67 67 64 63 57 56 55 53 54 56 57 59 65 74 80 87 89 92 99 97 97 97 99 100
43 49 52 62 63 63 62 58 56 56 59 60 62 62 62 62 61 55 52 47 51 54 52 51 56 58 58 60 63 65 67 73 78 84 90 88 90 98 97 94 92 94 95
50 57 59 62 67 68 65 62 60 60 62 66 65 64 64 66 63 56 47 50 53 60 56 58 63 64 62 62 70 72 75 76 80 90 94 90 92 94 92 92 90 91 90
53 57 63 66 64 67 66 63 62 62 64 66 66 65 63 59 60 65 65 65 65 60 59 60 61 66 70 72 74 77 80 82 84 90 96 86 85 88 86 90 91 90 91
52 58 62 66 62 63 65 65 64 66 66 67 66 64 64 62 64 61 59 59 63 63 66 67 68 69 73 78 81 86 87 88 88 88 88 87 86 88 88 90 92 93 92
46 55 61 67 65 67 69 69 68 69 70 68 66 64 61 61 59 59 64 69 70 72 74 73 74 78 82 86 89 92 94 92 91 89 89 89 90 92 93 94 93 94 93
47 48 58 66 65 62 63 69 71 70 71 70 68 66 64 62 66 71 70 72 75 78 78 79 82 84 86 90 90 92 96 96 96 95 95 95 96 95 91 89 86 89 91
55 58 57 57 53 53 53 60 64 71 72 72 70 68 66 70 72 72 74 77 79 79 82 86 87 89 89 90 91 96 98 99 99 97 94 86 82 86 79 88 84 84 86
58 59 61 60 54 52 51 56 63 70 72 72 70 70 72 71 73 75 77 80 83 85 86 89 91 90 89 92 96 97 97 98 96 94 88 59 47 52 66 56 55 48 50
65 65 62 60 59 58 56 64 70 70 73 72 72 70 70 73 76 79 80 84 88 89 89 90 91 92 91 93 99 95 94 97 97 88 65 53 46 45 56 55 49 44 49
63 66 65 66 67 58 64 73 76 76 76 70 69 67 67 70 75 78 83 85 88 89 93 94 96 96 94 94 99 99 96 95 96 74 60 62 66 69 70 38 47 45 50
64 64 68 73 70 69 74 80 79 80 66 69 68 68 70 73 74 78 83 86 90 95 99 96 96 97 96 93 98 90 48 60 59 55 56 64 78 83 77 52 42 39 48
67 63 72 72 70 72 79 84 83 70 76 72 70 70 71 75 77 79 85 91 94 95 98 96 100 99 93 90 86 88 74 50 51 48 49 54 66 82 80 79 47 55 55
69 65 73 75 72 73 78 87 84 82 78 74 73 74 75 78 79 83 88 96 98 97 98 100 100 98 96 93 86 80 82 78 62 45 44 42 42 77 73 81 61 74 85
70 64 71 78 78 74 76 79 82 81 76 77 78 78 79 84 86 86 88 92 95 98 100 100 100 98 96 92 79 71 83 82 74 63 45 45 45 73 67 63 72 66 62
77 68 73 76 75 76 79 77 77 78 78 80 87 88 86 90 90 91 91 92 91 92 98 98 97 97 95 89 86 66 64 77 75 71 68 54 66 70 65 56 46 45 54
88 74 73 74 75 74 81 81 77 76 77 83 88 91 94 95 93 93 95 94 96 96 98 98 98 95 93 91 89 84 62 61 79 95 88 74 63 66 59 52 46 42 43
Wind_Speed
3 8 14 16 19 27 32 36 34 35 36 37 38 28 31 30 26 23 24 26 22 19 18 17 14 13 13 12 9 11 13 12 12 9 12 16 19 22 19 17 16 15 12
5 4 6 13 21 23 28 31 36 39 41 38 34 31 31 26 25 23 22 25 27 23 21 18 16 15 12 10 10 10 11 13 15 11 11 3 8 11 4 5 6 2 5
7 6 6 10 15 20 23 27 29 32 34 36 34 28 25 25 27 24 22 24 23 23 22 20 18 16 14 13 12 13 14 17 14 13 6 2 3 3 3 1 3 2 7
6 6 7 12 17 22 24 27 26 28 29 32 30 29 27 22 30 31 25 24 23 22 17 14 16 18 15 11 9 11 14 15 16 14 13 14 8 2 3 1 3 3 5
9 9 10 19 22 22 21 21 24 24 25 28 28 29 28 27 24 28 30 25 21 19 19 18 16 14 12 10 13 14 12 12 13 12 9 9 10 11 5 3 2 2 4
9 8 16 20 22 21 19 18 19 22 23 25 27 27 28 26 24 23 21 19 15 12 9 9 10 10 9 9 9 9 9 10 11 11 11 10 5 4 8 4 9 3 6
6 7 8 12 20 23 23 20 19 21 22 24 26 27 26 24 20 18 19 18 14 12 8 6 6 7 6 7 7 7 8 10 11 12 12 11 11 10 11 11 8 7 6
4 6 7 14 19 23 25 22 20 19 19 17 17 18 21 23 19 16 15 13 8 6 7 6 6 5 5 7 8 8 10 10 10 11 11 11 11 12 13 13 8 3 4
4 5 7 12 22 21 25 26 22 16 14 13 12 12 13 16 21 17 16 15 9 10 9 8 6 6 7 8 8 9 10 10 10 10 10 11 11 12 12 12 13 10 3
6 5 6 7 8 13 16 21 19 16 14 12 12 12 14 16 16 17 16 15 14 10 8 5 6 7 8 10 11 11 10 12 11 11 10 10 10 10 9 9 8 8 7
4 5 6 5 1 5 8 13 13 12 13 13 13 13 16 19 20 21 19 15 11 8 6 6 9 10 8 8 11 11 10 10 11 10 10 9 9 9 8 8 9 9 7
4 5 6 7 4 1 5 9 10 12 13 14 15 18 19 19 19 21 22 18 18 14 12 13 11 11 9 9 10 10 10 9 9 10 9 7 8 7 7 8 8 7 5
7 6 6 7 5 3 5 9 11 13 15 17 17 17 17 18 18 15 13 11 11 12 13 11 10 9 9 9 9 9 9 8 6 7 7 7 8 8 8 7 6 5 6
6 5 6 7 7 6 9 12 15 18 20 21 21 20 20 18 14 11 8 8 9 9 9 9 8 6 8 8 9 9 6 4 4 3 5 5 7 7 8 8 7 5 5
8 7 6 5 8 10 12 15 18 19 21 23 22 21 18 16 16 13 10 9 9 10 10 8 6 6 7 7 8 9 8 8 7 6 6 6 6 6 8 7 7 7 6
6 6 6 7 11 15 18 18 20 23 23 24 23 21 20 20 17 14 12 11 11 11 8 9 7 6 6 5 6 8 8 8 8 8 6 4 3 2 5 6 5 7 10
7 7 7 7 12 16 21 23 25 22 24 24 23 22 22 20 17 16 15 14 12 10 9 9 7 7 5 5 6 6 8 9 9 8 6 4 5 5 5 5 7 5 7
6 7 8 13 18 17 18 21 24 24 26 25 25 24 23 21 20 18 17 15 13 11 10 10 9 6 6 6 4 8 8 9 8 8 7 7 7 7 6 5 3 2 4
7 13 16 19 21 21 20 18 21 26 27 28 27 25 24 23 22 21 18 16 13 11 10 9 8 8 7 7 7 9 9 9 9 8 8 8 7 6 7 6 5 5 5
14 15 15 16 18 22 16 16 23 26 29 32 31 27 26 26 25 23 20 16 13 9 11 10 9 10 10 9 9 10 11 12 11 10 9 8 7 6 6 6 7 7 7
15 13 14 15 16 17 14 17 21 26 34 30 28 27 27 26 24 21 19 16 12 9 11 11 12 13 13 11 9 10 10 11 12 11 10 9 8 6 6 6 7 6 6
16 14 13 13 14 14 12 18 23 26 25 26 27 27 26 25 23 21 19 16 13 11 12 13 13 14 13 12 12 13 11 10 12 12 10 10 9 9 7 7 6 6 7
16 15 13 13 12 11 9 13 17 16 18 21 25 25 24 24 22 22 20 17 15 12 13 16 17 16 15 14 13 14 14 13 12 11 10 9 10 10 9 9 8 8 10
20 19 13 11 11 8 5 7 10 15 20 23 21 22 23 22 20 21 20 19 18 16 16 17 18 16 14 15 16 16 14 15 14 11 10 10 10 12 11 10 10 12 12
24 20 15 12 10 5 3 7 11 16 19 18 18 18 18 20 20 20 21 20 19 18 18 19 17 16 16 18 17 18 19 18 17 15 12 12 14 15 15 14 13 14 14
24 18 15 11 10 5 3 5 9 12 15 15 16 17 18 18 19 19 16 16 16 15 15 14 14 14 15 13 12 16 18 18 17 17 18 18 19 20 18 17 16 16 16
Wind_Direction
255 214 203 196 196 203 205 210 211 210 206 213 216 212 221 215 213 215 220 214 223 227 222 220 214 213 223 236 247 254 257 266 272 283 297 306 299 294 294 293 292 287 272
267 253 233 217 208 201 210 212 211 211 209 209 217 217 221 219 220 212 213 213 225 228 224 219 217 220 232 228 248 250 262 276 282 286 309 318 307 276 320 354 9 1 185
220 232 226 222 231 230 220 218 220 216 220 220 217 212 216 215 216 209 216 218 222 221 222 226 230 228 223 227 244 260 266 276 271 280 265 302 250 321 270 13 24 125 176
237 245 227 217 224 228 230 236 230 228 228 228 228 223 213 202 218 219 216 212 215 220 206 229 235 233 236 230 248 268 269 270 273 277 258 249 249 249 311 29 97 200 190
218 228 229 232 227 235 236 237 236 234 229 232 232 233 218 219 221 219 218 203 191 187 192 199 222 236 239 251 263 262 266 264 267 265 259 252 252 251 238 276 223 141 180
221 236 244 245 242 242 241 237 242 239 232 236 232 232 228 225 220 212 198 198 199 197 196 196 223 243 254 260 260 262 266 269 268 265 259 247 237 240 224 233 257 224 197
222 226 239 244 245 242 237 234 232 236 238 236 237 238 242 240 226 213 206 202 195 187 190 216 232 241 263 265 268 271 265 266 268 272 271 262 254 256 264 267 270 241 202
250 244 243 248 245 243 239 228 223 224 222 225 235 238 236 231 220 200 185 197 201 212 198 207 234 265 263 277 278 281 282 278 276 272 265 264 265 273 272 259 271 253 174
17 335 313 257 242 239 237 228 218 211 215 218 220 219 209 193 176 170 176 195 212 213 211 217 233 254 278 280 286 287 286 280 274 271 264 259 266 274 267 264 260 259 257
10 352 342 326 259 242 234 223 220 219 220 222 220 209 198 193 181 162 161 159 169 195 220 242 264 258 264 277 284 278 278 278 276 274 270 272 277 266 255 255 255 256 252
336 322 326 355 257 232 232 214 210 213 208 204 196 189 183 179 172 166 167 173 173 213 241 277 267 264 261 271 273 277 276 273 277 267 264 277 268 264 261 262 261 256 257
333 327 337 352 14 281 208 201 206 210 207 195 189 186 185 184 183 180 171 184 212 222 236 224 234 253 262 269 276 282 273 272 272 269 248 267 260 262 270 268 259 255 251
318 326 338 337 327 276 223 218 216 215 209 202 198 198 201 193 200 201 186 193 198 200 199 215 232 245 267 276 274 274 277 275 272 263 254 268 274 268 272 270 263 257 255
273 280 286 275 281 260 235 222 218 215 210 204 202 202 204 200 214 202 187 185 206 218 232 217 223 243 264 276 282 271 265 260 279 279 281 264 262 265 263 260 251 241 224
276 259 265 285 282 265 245 231 225 216 211 206 205 205 201 200 199 195 203 225 221 218 216 222 225 240 258 279 301 278 259 258 257 255 247 249 256 259 264 256 243 227 210
290 278 270 256 256 252 247 240 228 218 212 211 211 209 202 194 200 209 201 200 205 215 217 227 231 241 259 277 288 266 247 243 240 237 229 231 234 226 257 250 235 211 205
291 292 284 287 284 276 264 247 237 219 212 213 213 207 202 203 203 193 192 199 207 215 223 230 233 237 253 274 280 269 246 236 230 228 226 212 196 204 175 136 134 154 200
277 290 296 294 295 297 277 261 241 217 213 211 211 205 205 200 192 193 198 202 209 215 219 223 228 242 255 264 271 243 249 239 236 232 226 221 217 212 215 197 182 141 138
265 267 279 285 286 285 283 263 233 215 210 210 209 204 202 198 196 198 201 206 210 218 226 229 234 243 254 257 243 245 240 234 233 226 224 224 215 205 217 221 189 157 129
273 280 286 286 283 282 287 248 225 210 206 212 209 204 203 203 202 203 202 207 215 237 231 226 236 243 249 244 225 244 229 232 226 217 218 221 215 192 215 217 207 188 174
278 283 285 288 291 295 284 242 222 208 218 211 208 204 204 204 205 203 206 210 213 245 233 230 236 239 237 236 227 223 225 223 220 220 221 217 210 205 216 226 221 215 204
289 283 280 286 298 305 285 248 221 231 218 209 202 201 202 203 201 201 202 206 210 219 229 236 236 234 230 231 220 218 228 233 234 233 233 228 211 212 215 225 217 206 200
287 282 272 283 286 307 289 245 232 222 205 197 196 195 195 199 199 196 198 199 209 221 233 237 237 236 235 234 227 222 229 233 244 247 240 235 229 221 222 219 212 201 220
284 273 268 270 274 283 288 248 207 193 185 182 184 188 191 193 197 199 202 206 212 221 232 233 235 242 240 237 231 227 226 231 230 240 237 230 227 224 235 222 218 222 230
296 255 244 252 257 254 242 166 164 169 166 170 180 186 190 197 197 203 207 215 230 236 237 241 242 239 241 242 239 231 225 225 227 228 227 220 219 220 226 231 233 232 235
290 235 227 235 245 218 211 172 162 168 169 170 177 188 192 201 206 207 213 228 240 245 243 244 247 249 253 255 245 237 232 231 229 223 229 229 228 232 236 240 242 238 237